Hourly Data Report for October 16, 2013

All times are specified in Local Standard Time (LST). Add 1 hour to adjust for Daylight Saving Time where and when it is observed.

QIKIQTARJUAQ A
NUNAVUT

67°32'48.000" N
64°01'54.000" W
5.50 m
2400577
YVM

Download Data

Hourly Data (October 2013)
Hourly Data Report for October 16, 2013
Temp Definition
°C
Dew Point Temp Definition
°C
Rel Hum Definition
%
Wind Dir Definition
10's deg

Wind Spd Definition
km/h
Visibility Definition
km
Stn Press Definition
kPa
Hmdx Definition


Wind Chill Definition


Weather Definition


TIME
00:00 Legend Double Dagger -0.8 -2.4 89 19 11 16.1 101.20   -5 LegendNANA
01:00 Legend Double Dagger -0.8 -1.9 92 20 11 16.1 101.22   -5 LegendNANA
02:00 Legend Double Dagger -0.5 -1.4 94 21 11 16.1 101.24   -4 LegendNANA
03:00 Legend Double Dagger -0.7 -1.1 97 21 13 16.1 101.24   -5 LegendNANA
04:00 Legend Double Dagger -0.6 -1.2 96 21 15 16.1 101.24   -5 LegendNANA
05:00 Legend Double Dagger -0.4 -1.2 94   0 16.1 101.26     LegendNANA
06:00 Legend Double Dagger -0.5 -0.9 97 21 13 16.1 101.31   -5 LegendNANA
07:00 Legend Double Dagger -0.5 -0.9 97 20 5 16.1 101.30   -2 LegendNANA
08:00 Legend Double Dagger -0.4 -0.8 97 21 11 6.4 101.31   -4 LegendNANA
09:00 Legend Double Dagger -0.6 -0.9 98 21 11 16.1 101.31   -4 LegendNANA
10:00 Legend Double Dagger -0.6 -1.0 97 21 15 16.1 101.30   -5 LegendNANA
11:00 Legend Double Dagger -0.4 -0.8 97 20 18 16.1 101.29   -5 LegendNANA
12:00 Legend Double Dagger -1.2 -1.5 98 20 13 0.2 101.28   -5 LegendNANA
13:00 Legend Double Dagger -1.0 -1.4 97 20 15 16.1 101.32   -6 LegendNANA
14:00 Legend Double Dagger -0.7 -1.3 96 19 8 16.1 101.34   -4 LegendNANA
15:00 Legend Double Dagger -0.5 -1.5 93 19 5 16.1 101.37   -2 LegendNANA
16:00 Legend Double Dagger -0.4 -1.5 93 20 8 16.1 101.38   -3 LegendNANA
17:00 Legend Double Dagger -0.5 -1.5 93 20 11 16.1 101.38   -4 LegendNANA
18:00 Legend Double Dagger -0.7 -1.3 96 20 17 16.1 101.39   -6 LegendNANA
19:00 Legend Double Dagger -0.7 -1.6 94 21 17 16.1 101.40   -6 LegendNANA
20:00 Legend Double Dagger -0.4 -1.5 92 21 13 16.1 101.42   -5 LegendNANA
21:00 Legend Double Dagger -0.6 -1.5 94 20 18 16.1 101.40   -6 LegendNANA
22:00 Legend Double Dagger -1.1 -1.8 95 20 17 16.1 101.40   -6 LegendNANA
23:00 Legend Double Dagger -1.0 -1.7 95 20 15 16.1 101.40   -6 LegendNANA

Notes on Data Quality.

Legend

  • E = Estimated
  • M = Missing
  • NA = Not Available
  • ‡ = Partner data that is not subject to review by the National Climate Archives
Date modified: